C/2007 U1 ( LINEAR )

Japanese version
Home page
Total 6,336 html files since Dec. 4, 1995
Updated on August 12, 2008

---------------------------------------------------------------------

* Profile

Discovery Date October 19, 2007
Magnitude 19.4 mag
Discoverer Lincoln Laboratory Near-Earth Asteroid Research project

* Pictures

* Orbital Elements

Epoch 2008 Aug. 2.0 TT = JDT 2454680.5
T 2008 Aug. 7.06157 TT                                  MPC
q   3.3291382            (2000.0)            P               Q
z  -0.0004302      Peri.    0.92971     +0.65364706     +0.69912229
 +/-0.0000030      Node    50.04265     +0.69188716     -0.70719245
e   1.0014321      Incl.  157.78722     +0.30665564     +0.10538905

* Finding Charts

* Magnitudes Graph

        m1 = 5.5 + 5 log d + 15.0 log r

---------------------------------------------------------------------

The orbital elements are published on M.P.E.C. 2008-P51.
The charts are made with StellaNavigator Ver.8 (AstroArts).
The magnitudes graphs are made with Comet for Windows.

---------------------------------------------------------------------

Copyright(C) 1995-2008 Seiichi Yoshida (comet@aerith.net). All rights reserved.